User: anonymous   Login
Location: Unspecified
(0.0000°N, 0.0000°E)
Time: 17:16:54
(UTC+00:00)
Language:

Ayame - Orbit

View from above orbital plane
View from above orbital plane
View from above satellite
View from above satellite

Ground track
Ground track

The orbit data is extracted from the following two-line orbital elements,

1 11261U 79009A   19015.59728220 -.00000100 +00000-0 +00000-0 0  9999
2 11261 008.9779 089.7033 3674020 194.0773 281.8165 01.68579641130479
Epoch (UTC): 15 January 2019 14:20:05
Eccentricity: 0.3674020
inclination: 8.9779°
perigee height: 12487 km
apogee height: 34400 km
right ascension of ascending node: 89.7033°
argument of perigee: 194.0773°
revolutions per day: 1.68579641
mean anomaly at epoch: 281.8165°
orbit number at epoch: 13047

The dashed part of the orbit path shows where the satellite is in the earth's shadow,  

DLR